Location: Bas-Clignon
(44.2000°N, 6.6333°E)
Time: 02:36:36
(UTC+00:00)

CZ-4 R/B - Pass Details

Date: 03 February 2023
Orbit: 526 x 587 km, 97.7° (Epoch: 27 March)

Event Time Altitude Azimuth Distance (km) Brightness Sun altitude
Rises 19:38:26 0° 202° (SSW) 2,799 5.1 -31.2°
Reaches altitude 10° 19:41:05 10° 220° (SW) 1,898 4.4 -31.6°
Maximum altitude 19:44:06 20° 267° (W) 1,382 4.0 -32.2°
Drops below altitude 10° 19:47:06 10° 314° (NW) 1,889 4.6 -32.7°
Sets 19:49:45 0° 332° (NNW) 2,781 5.4 -33.2°
